AirNav   Air Wisconsin pilot careers
 
 1632 users online  

UT13 Number 18 Airport
South Jordan, Utah, USA

GOING TO SOUTH JORDAN?


FAA INFORMATION EFFECTIVE 21 JUNE 2018

Location

FAA Identifier: UT13
Lat/Long: 40-33-50.0000N / 112-00-50.0000W
40-33.833333N / 112-00.833333W
40.5638889 / -112.0138889
(estimated)
Elevation: 4820 ft. / 1469 m (estimated)
Variation: 14E (1995)
From city: 3 miles E of SOUTH JORDAN, UT
Time zone: UTC -6 (UTC -7 during Standard Time)
Zip code: 84095

Airport Operations

Airport use: Private use. Permission required prior to landing
Activation date: 02/2000
Control tower: no
ARTCC: SALT LAKE CITY CENTER
FSS: CEDAR CITY FLIGHT SERVICE STATION
Attendance: UNATNDD
UNATNDD
Wind indicator: no
Segmented circle: no

Airport Communications

WX AWOS-3 at U42 (3 nm N): 134.425 (801-562-0271)
WX ASOS at SLC (14 nm N): PHONE 801-328-3567
WX AWOS-3 at TVY (16 nm W): 119.725 (435-882-6648)

Nearby radio navigation aids

VOR radial/distance  VOR name  Freq  Var
TCHr169/17.2WASATCH VORTAC116.8016E
FFUr333/17.7FAIRFIELD VORTAC116.6016E
PVUr312/24.8PROVO VOR/DME108.4015E
OGDr160/39.8OGDEN VORTAC115.7014E

Airport Services

Runway Information

Runway 18/36

Dimensions: 1100 x 120 ft. / 335 x 37 m
Surface: gravel/dirt, in fair condition
RUNWAY 18  RUNWAY 36
Traffic pattern: leftright
Obstructions: 40 ft. ant, marked and lighted, 500 ft. from runwaybldg

Airport Ownership and Management from official FAA records

Ownership: Privately-owned
Owner: WINGS WEST, L.C.
1780 WEST 9000 S., SUITE 301
WEST JORDAN, UT 84088
Phone 801-280-2524
Manager: T.A. BELCHAK
1780 WEST 9000 S., SUITE 301
WEST JORDAN, UT 84088
Phone 801-280-2524

Instrument Procedures

There are no published instrument procedures at UT13.

Some nearby airports with instrument procedures:

U42 - South Valley Regional Airport (3 nm N)
KSLC - Salt Lake City International Airport (14 nm N)
KTVY - Bolinder Field-Tooele Valley Airport (16 nm W)
KPVU - Provo Municipal Airport (25 nm SE)
KHCR - Heber City Municipal Airport - Russ McDonald Field (27 nm E)
 
Loc | Ops | Rwys | IFR | FBO | Links
Com | Nav | Svcs | Stats | Notes

TAC Air
 
Area around UT13 (Number 18 Airport)
 
Road maps at: MapQuest Bing Google
 
Aerial photo
No photo
 
Sectional chart

 
Airport distance calculator
Flying to Number 18 Airport? Find the distance to fly.

From to UT13

Sunrise and sunset
Times for 18-Jul-2018
 Local
(UTC-6)
 Zulu
(UTC)
Morning civil twilight05:4211:42
Sunrise06:1412:14
Sunset20:5502:55
Evening civil twilight21:2703:27

Current date and time
Zulu (UTC)  18-Jul-2018 19:19:37
Local (UTC-6)  18-Jul-2018 13:19:37
 
METAR
KU42 
3nm N 
181855Z AUTO 30008KT 10SM CLR 33/07 A3018 RMK AO1 T03300072
KSLC 
13nm N 
181854Z 34007G14KT 10SM FEW095 FEW250 33/01 A3014 RMK AO2 SLP142 T03330011
KTVY 
16nm W 
181855Z AUTO 36012G16KT 10SM CLR 33/07 A3016 RMK AO2
TAF
KSLC 
13nm N 
181743Z 1818/1924 33008KT P6SM FEW150 FM190300 15006KT P6SM SCT250 FM191700 35008KT P6SM SCT100 SCT200
NOTAMs
Click for the latest NOTAMs
NOTAMs are issued by the DoD/FAA and will open in a separate window not controlled by AirNav.

 

 
 

Would you like to see your business listed on this page?

 If your business provides an interesting product or service to pilots, flight crews, aircraft, or users of the Number 18 Airport, you should consider listing it here.  To start the listing process, click on the button below
 
Add a business
 

Other Pages about Number 18 Airport

Update a link
 
Copyright © AirNav, LLC. All rights reserved. Privacy Policy  Contact